Location: Huntsville
(41.2590°N, 111.7678°W)
Time: 20:34:09
(UTC+00:00)

ISS - Pass Details

Date: 04 December 2021
Orbit: 413 x 422 km, 51.6° (Epoch: 25 January)

Event Time Altitude Azimuth Distance (km) Brightness Sun altitude
Rises 01:20:10 0° 310° (NW) 2,385 0.6 -15.0°
Reaches altitude 10° 01:22:28 10° 322° (NW) 1,515 -0.7 -15.4°
Maximum altitude 01:25:29 29° 24° (NNE) 810 -2.7 -16.0°
Enters shadow 01:25:38 29° 30° (NNE) 812 -2.7 -16.0°
